Overview Statistics Trail Chart Weather Telemetry Raw packets
 

This is the latest recevied weather packets stored in our database for station/object YD1OCG-15. If no packets are shown the sender has not sent any weather packets the latest 10 day(s).

<< 13 14 15 16 17 >>
Time Temp. Humidity Pressure Rain* Wind** Luminosity Snow
1787897363 30° C 61% 1012 hPa - - - -
1787895563 30° C 63% 1012 hPa - - - -
1787893763 30° C 60% 1013 hPa - - - -
1787891967 30.56° C 10% - - - - -
1787890163 28.89° C 61% 1015 hPa - - - -
1787888364 28.89° C 61% 1015 hPa - - - -
1787886563 28.33° C 63% 1016 hPa - - - -
1787884764 27.78° C 65% 1016 hPa - - - -
1787882964 27.78° C 72% 1016 hPa - - - -
1787881163 26.11° C 65% 1017 hPa - - - -
1787879363 25.56° C 50% 1016 hPa - - - -
1787877564 24.44° C 51% 1017 hPa - - - -
1787875763 23.89° C 71% 1016 hPa - - - -
1787873963 25° C 76% 1017 hPa - - - -
1787872163 24.44° C 76% 1015 hPa - - - -
1787870363 25° C 83% 1016 hPa - - - -
1787868563 24.44° C 75% 1015 hPa - - - -
1787866764 25.56° C 83% 1016 hPa - - - -
1787864964 25° C 75% 1015 hPa - - - -
1787863164 25.56° C 83% 1015 hPa - - - -
1787861381 25° C 75% 1015 hPa - - - -
1787859595 25.56° C 84% 1015 hPa - - - -
1787857783 -17.78° C - - - - - -
1787855964 26.67° C 85% 1015 hPa - - - -
1787854164 26.67° C 82% 1016 hPa - - - -

* Rain since midnight (hover to see other rain measurements)
** Current wind speed in m/s (hover to see current wind gust speed)